When you browse on this site, cookies collect data to enhance your experience and personalize the content and advertising you see.
Visit our Privacy Policy to learn more. By continuing to use the site, you agree to this use of cookies and data.
  • In Austria
  • List of Countries
  • For 7 days
  • Water Temperature
  • Weather Map
  • News
  • Weather Widgets
  • user-avatar
    Login

    Hourly Weather Shkoder

    Today, 13 December, Friday

    Time Temperature Precipitation Wind Pressure Humidity
    00:00 +9°C° 1.4 mm 1 mps 729 mmHg 93%
    01:00 +9°C° 0 mm 1 mps 729 mmHg 92%
    02:00 +9°C° 1.5 mm 1 mps 729 mmHg 93%
    03:00 +8°C° 1.5 mm 2 mps 728 mmHg 94%
    04:00 +8°C° 1.5 mm 2 mps 728 mmHg 95%
    05:00 +8°C° 0.9 mm 2 mps 728 mmHg 95%
    06:00 +8°C° 0.9 mm 2 mps 728 mmHg 94%
    07:00 +8°C° 0.9 mm 2 mps 728 mmHg 93%
    08:00 +8°C° 0.4 mm 2 mps 728 mmHg 91%
    09:00 +9°C° 0.4 mm 2 mps 728 mmHg 89%
    10:00 +9°C° 0.4 mm 2 mps 728 mmHg 86%
    11:00 +9°C° 0.6 mm 3 mps 728 mmHg 85%
    12:00 +10°C° 0.6 mm 3 mps 727 mmHg 83%
    13:00 +10°C° 0.6 mm 3 mps 727 mmHg 81%
    14:00 +9°C° 0.4 mm 3 mps 726 mmHg 83%
    15:00 +9°C° 0.4 mm 3 mps 726 mmHg 85%
    16:00 +9°C° 0.4 mm 3 mps 725 mmHg 87%
    17:00 +9°C° 0.4 mm 3 mps 724 mmHg 88%
    18:00 +9°C° 0.4 mm 3 mps 724 mmHg 88%
    19:00 +9°C° 0.4 mm 3 mps 723 mmHg 88%
    20:00 +8°C° 0.3 mm 4 mps 722 mmHg 86%
    21:00 +8°C° 0.3 mm 4 mps 721 mmHg 85%
    22:00 +8°C° 0.3 mm 4 mps 720 mmHg 83%
    23:00 +7°C° 0.6 mm 4 mps 719 mmHg 84%

    Tomorrow, 14 December, Saturday

    Time Temperature Precipitation Wind Pressure Humidity
    00:00 +7°C° 0.6 mm 4 mps 719 mmHg 86%
    01:00 +7°C° 0.6 mm 4 mps 718 mmHg 87%
    02:00 +7°C° 3.2 mm 4 mps 718 mmHg 88%
    03:00 +6°C° 3.2 mm 4 mps 718 mmHg 89%
    04:00 +5°C° 3.2 mm 3 mps 718 mmHg 90%
    05:00 +7°C° 0.4 mm 3 mps 719 mmHg 90%
    06:00 +7°C° 0.4 mm 3 mps 720 mmHg 89%
    07:00 +7°C° 0.4 mm 3 mps 721 mmHg 89%
    08:00 +8°C° 0 mm 2 mps 722 mmHg 87%
    09:00 +9°C° 0 mm 2 mps 723 mmHg 85%
    10:00 +9°C° 0 mm 2 mps 724 mmHg 83%
    11:00 +10°C° 0 mm 2 mps 725 mmHg 80%
    12:00 +12°C° 0 mm 2 mps 726 mmHg 78%
    13:00 +12°C° 0 mm 2 mps 727 mmHg 76%
    14:00 +12°C° 0 mm 2 mps 728 mmHg 78%
    15:00 +10°C° 0 mm 2 mps 729 mmHg 79%
    16:00 +10°C° 0 mm 2 mps 730 mmHg 81%
    17:00 +9°C° 0 mm 3 mps 731 mmHg 81%
    18:00 +9°C° 0 mm 3 mps 732 mmHg 81%
    19:00 +8°C° 0 mm 3 mps 733 mmHg 81%
    20:00 +8°C° 0 mm 3 mps 734 mmHg 81%
    21:00 +8°C° 0 mm 3 mps 735 mmHg 81%
    22:00 +8°C° 0 mm 3 mps 736 mmHg 81%
    23:00 +8°C° 0 mm 3 mps 737 mmHg 81%

    Day after tomorrow, 15 December, Sunday

    Time Temperature Precipitation Wind Pressure Humidity
    00:00 +7°C° 0 mm 3 mps 738 mmHg 81%
    01:00 +7°C° 0 mm 3 mps 738 mmHg 80%
    02:00 +7°C° 0 mm 3 mps 739 mmHg 80%
    03:00 +7°C° 0 mm 3 mps 739 mmHg 80%
    04:00 +7°C° 0 mm 3 mps 739 mmHg 79%
    05:00 +7°C° 0 mm 3 mps 740 mmHg 79%
    06:00 +7°C° 0 mm 3 mps 740 mmHg 78%
    07:00 +7°C° 0 mm 3 mps 741 mmHg 77%
    08:00 +8°C° 0 mm 3 mps 741 mmHg 75%
    09:00 +9°C° 0 mm 2 mps 741 mmHg 74%
    10:00 +12°C° 0 mm 2 mps 742 mmHg 72%
    11:00 +13°C° 0 mm 1 mps 742 mmHg 70%
    12:00 +14°C° 0 mm 1 mps 741 mmHg 68%
    13:00 +15°C° 0 mm 1 mps 741 mmHg 66%
    14:00 +14°C° 0 mm 1 mps 742 mmHg 67%
    15:00 +13°C° 0 mm 1 mps 742 mmHg 69%
    16:00 +12°C° 0 mm 1 mps 742 mmHg 71%
    17:00 +12°C° 0 mm 1 mps 742 mmHg 71%
    18:00 +12°C° 0 mm 1 mps 743 mmHg 70%
    19:00 +12°C° 0 mm 1 mps 743 mmHg 70%
    20:00 +12°C° 0 mm 1 mps 744 mmHg 71%
    21:00 +11°C° 0 mm 1 mps 744 mmHg 73%
    22:00 +11°C° 0 mm 1 mps 744 mmHg 74%
    23:00 +11°C° 0 mm 1 mps 744 mmHg 75%

    16 December, Monday

    Time Temperature Precipitation Wind Pressure Humidity
    00:00 +11°C° 0 mm 1 mps 745 mmHg 77%
    01:00 +11°C° 0 mm 1 mps 745 mmHg 78%
    02:00 +11°C° 0 mm 1 mps 745 mmHg 80%
    03:00 +11°C° 0 mm 1 mps 745 mmHg 83%
    04:00 +11°C° 0 mm 1 mps 745 mmHg 85%
    05:00 +11°C° 0 mm 1 mps 745 mmHg 86%
    06:00 +11°C° 0 mm 1 mps 746 mmHg 87%
    07:00 +12°C° 0 mm 1 mps 746 mmHg 88%
    08:00 +12°C° 0 mm 1 mps 746 mmHg 86%
    09:00 +13°C° 0 mm 1 mps 746 mmHg 84%
    10:00 +14°C° 0 mm 1 mps 746 mmHg 82%
    11:00 +14°C° 0 mm 1 mps 746 mmHg 80%
    12:00 +15°C° 0 mm 1 mps 745 mmHg 79%
    13:00 +15°C° 0 mm 1 mps 745 mmHg 78%
    14:00 +14°C° 0 mm 1 mps 745 mmHg 81%
    15:00 +13°C° 0 mm 1 mps 745 mmHg 84%
    16:00 +13°C° 0 mm 1 mps 745 mmHg 87%
    17:00 +12°C° 0 mm 1 mps 745 mmHg 86%
    18:00 +12°C° 0 mm 1 mps 745 mmHg 86%
    19:00 +12°C° 0 mm 1 mps 746 mmHg 85%
    20:00 +11°C° 0 mm 1 mps 746 mmHg 84%
    21:00 +11°C° 0 mm 1 mps 746 mmHg 84%
    22:00 +11°C° 0 mm 1 mps 746 mmHg 83%
    23:00 +11°C° 0 mm 1 mps 746 mmHg 82%

    17 December, Tuesday

    Time Temperature Precipitation Wind Pressure Humidity
    00:00 +11°C° 0 mm 1 mps 745 mmHg 81%
    01:00 +11°C° 0 mm 1 mps 745 mmHg 80%
    02:00 +11°C° 0 mm 1 mps 745 mmHg 79%
    03:00 +11°C° 0 mm 1 mps 745 mmHg 77%
    04:00 +10°C° 0 mm 1 mps 745 mmHg 75%
    05:00 +10°C° 0 mm 1 mps 745 mmHg 76%
    06:00 +10°C° 0 mm 1 mps 745 mmHg 77%
    07:00 +10°C° 0 mm 1 mps 745 mmHg 77%
    08:00 +11°C° 0 mm 1 mps 745 mmHg 77%
    09:00 +13°C° 0 mm 1 mps 746 mmHg 77%
    10:00 +14°C° 0 mm 1 mps 746 mmHg 76%
    11:00 +14°C° 0 mm 1 mps 745 mmHg 76%
    12:00 +15°C° 0 mm 1 mps 745 mmHg 76%
    13:00 +15°C° 0 mm 1 mps 744 mmHg 76%
    14:00 +15°C° 0 mm 1 mps 744 mmHg 79%
    15:00 +14°C° 0 mm 1 mps 744 mmHg 82%
    16:00 +13°C° 0 mm 1 mps 744 mmHg 86%
    17:00 +13°C° 0 mm 1 mps 744 mmHg 85%
    18:00 +12°C° 0 mm 1 mps 745 mmHg 85%
    19:00 +12°C° 0 mm 1 mps 745 mmHg 84%
    20:00 +12°C° 0 mm 1 mps 745 mmHg 83%
    21:00 +11°C° 0 mm 1 mps 745 mmHg 81%
    22:00 +11°C° 0 mm 1 mps 745 mmHg 80%
    23:00 +11°C° 0 mm 1 mps 745 mmHg 79%

    18 December, Wednesday

    Time Temperature Precipitation Wind Pressure Humidity
    00:00 +11°C° 0 mm 1 mps 745 mmHg 78%
    01:00 +11°C° 0 mm 1 mps 744 mmHg 77%
    02:00 +11°C° 0 mm 1 mps 744 mmHg 77%
    03:00 +11°C° 0 mm 1 mps 744 mmHg 77%
    04:00 +11°C° 0 mm 1 mps 744 mmHg 77%
    05:00 +10°C° 0 mm 1 mps 744 mmHg 78%
    06:00 +10°C° 0 mm 1 mps 744 mmHg 80%
    07:00 +10°C° 0 mm 1 mps 744 mmHg 81%
    08:00 +12°C° 0 mm 1 mps 744 mmHg 81%
    09:00 +13°C° 0 mm 1 mps 744 mmHg 81%
    10:00 +14°C° 0 mm 1 mps 744 mmHg 81%
    11:00 +14°C° 0 mm 1 mps 744 mmHg 80%
    12:00 +15°C° 0 mm 1 mps 743 mmHg 78%
    13:00 +15°C° 0 mm 1 mps 743 mmHg 77%
    14:00 +15°C° 0 mm 1 mps 743 mmHg 80%
    15:00 +14°C° 0 mm 1 mps 743 mmHg 83%
    16:00 +13°C° 0 mm 1 mps 743 mmHg 87%
    17:00 +13°C° 0 mm 1 mps 743 mmHg 87%
    18:00 +12°C° 0 mm 1 mps 743 mmHg 87%
    19:00 +12°C° 0 mm 1 mps 743 mmHg 87%
    20:00 +12°C° 0 mm 1 mps 743 mmHg 86%
    21:00 +12°C° 0 mm 1 mps 743 mmHg 86%
    22:00 +11°C° 0 mm 1 mps 743 mmHg 85%
    23:00 +11°C° 0 mm 1 mps 743 mmHg 84%
    Show more